Location: Unspecified
(52.1971°N, 0.0000°E)
Time: 11:13:36
(UTC+00:00)

N. Korean satellite - Visible Passes

Search period start: 15 October 2019 00:00
Search period end: 25 October 2019 00:00
Orbit: 455 x 508 km, 97.2° (Epoch: 14 October)

Date Brightness Start Highest point End Pass type
(mag) Time Alt. Az. Time Alt. Az. Time Alt. Az.
15 Oct 9.2 05:20:57 10° NE 05:23:58 25° E 05:27:00 10° SSE visible
16 Oct 10.1 04:56:26 10° NE 04:58:28 14° E 05:00:31 10° SE visible
17 Oct 10.4 18:20:17 10° WSW 18:21:27 11° W 18:22:37 10° WNW visible
18 Oct 8.3 05:38:10 10° NNE 05:41:34 39° E 05:44:59 10° SSE visible
18 Oct 9.6 17:53:16 10° SW 17:55:54 20° W 17:58:34 10° NW visible
19 Oct 9.5 05:13:16 10° NE 05:16:08 22° E 05:19:00 10° SE visible
19 Oct 8.3 17:27:13 10° SSW 17:30:26 38° W 17:33:42 10° NNW visible
20 Oct 10.3 04:49:02 10° ENE 04:50:36 12° E 04:52:10 10° ESE visible
21 Oct 7.2 05:55:32 10° NNE 05:59:07 62° E 06:02:44 10° S visible
21 Oct 10.1 18:11:42 10° WSW 18:13:32 14° W 18:15:23 10° WNW visible
22 Oct 8.7 05:30:25 10° NNE 05:33:43 33° E 05:37:03 10° SSE visible
22 Oct 9.2 17:45:07 10° SSW 17:47:59 25° W 17:50:56 10° NW visible
23 Oct 9.8 05:05:37 10° NE 05:08:15 19° E 05:10:53 10° SE visible
23 Oct 7.8 17:19:13 10° S 17:22:33 46° W 17:25:57 10° NNW visible
24 Oct 10.5 04:41:57 10° ENE 04:42:41 10° E 04:43:24 10° E visible
